Time,TemperatureF,DewpointF,PressureIn,WindDirection,WindDirectionDegrees,WindSpeedMPH,WindSpeedGustMPH,Humidity,HourlyPrecipIn,Conditions,Clouds,dailyrainin,SoftwareType,DateUTC
2013-01-01 00:03:00,31.0,23.0,29.87,NW,326,0.0,3.0,72,0.00,,,0.00,,2013-01-01 05:03:00,
2013-01-01 00:12:00,31.0,23.0,29.87,NW,326,0.0,3.0,72,0.00,,,0.00,,2013-01-01 05:12:00,
2013-01-01 00:22:00,31.0,23.0,29.86,NW,325,1.0,4.0,71,0.00,,,0.00,,2013-01-01 05:22:00,
2013-01-01 00:33:00,31.0,23.0,29.85,NW,322,0.0,4.0,71,0.00,,,0.00,,2013-01-01 05:33:00,
2013-01-01 00:42:00,31.0,23.0,29.85,NW,322,0.0,4.0,71,0.00,,,0.00,,2013-01-01 05:42:00,
2013-01-01 00:53:00,31.0,23.0,29.85,WNW,296,1.0,4.0,71,0.00,,,0.00,,2013-01-01 05:53:00,
2013-01-01 01:02:00,32.0,23.0,29.84,NW,313,0.0,4.0,70,0.00,,,0.00,,2013-01-01 06:02:00,
2013-01-01 01:12:00,32.0,23.0,29.84,NW,313,0.0,4.0,70,0.00,,,0.00,,2013-01-01 06:12:00,
2013-01-01 01:22:00,32.0,23.0,29.84,North,5,2.0,5.0,70,0.00,,,0.00,,2013-01-01 06:22:00,
2013-01-01 01:32:00,32.0,23.0,29.84,WNW,302,2.0,6.0,69,0.00,,,0.00,,2013-01-01 06:32:00,
2013-01-01 01:42:00,32.0,23.0,29.84,WNW,302,2.0,6.0,69,0.00,,,0.00,,2013-01-01 06:42:00,
2013-01-01 01:52:00,32.0,23.0,29.84,NW,320,2.0,5.0,69,0.00,,,0.00,,2013-01-01 06:52:00,
2013-01-01 02:02:00,32.0,23.0,29.84,NNW,329,1.0,3.0,69,0.00,,,0.00,,2013-01-01 07:02:00,
2013-01-01 02:12:00,32.0,23.0,29.85,NW,316,2.0,7.0,69,0.00,,,0.00,,2013-01-01 07:12:00,
2013-01-01 02:22:00,32.0,23.0,29.85,NW,316,2.0,7.0,69,0.00,,,0.00,,2013-01-01 07:22:00,
2013-01-01 02:32:00,32.0,23.0,29.85,NW,316,2.0,7.0,69,0.00,,,0.00,,2013-01-01 07:32:00,
2013-01-01 02:42:00,32.0,23.0,29.85,NW,316,2.0,7.0,69,0.00,,,0.00,,2013-01-01 07:42:00,
2013-01-01 02:53:00,32.0,24.0,29.85,NNW,334,2.0,6.0,71,0.00,,,0.00,,2013-01-01 07:53:00,
2013-01-01 03:02:00,32.0,23.0,29.84,NW,324,3.0,6.0,70,0.00,,,0.00,,2013-01-01 08:02:00,
2013-01-01 03:12:00,32.0,23.0,29.84,NW,324,3.0,6.0,70,0.00,,,0.00,,2013-01-01 08:12:00,
2013-01-01 03:22:00,32.0,24.0,29.84,NNW,340,2.0,6.0,72,0.00,,,0.00,,2013-01-01 08:22:00,
2013-01-01 03:32:00,32.0,24.0,29.82,WNW,288,3.0,8.0,72,0.00,,,0.00,,2013-01-01 08:32:00,
2013-01-01 03:42:00,32.0,24.0,29.82,WNW,288,3.0,8.0,72,0.00,,,0.00,,2013-01-01 08:42:00,
2013-01-01 03:53:00,31.0,23.0,29.82,NNW,339,2.0,5.0,73,0.00,,,0.00,,2013-01-01 08:53:00,
2013-01-01 04:02:00,31.0,24.0,29.82,NW,313,2.0,5.0,74,0.00,,,0.00,,2013-01-01 09:02:00,
2013-01-01 04:12:00,31.0,24.0,29.82,NW,313,2.0,5.0,74,0.00,,,0.00,,2013-01-01 09:12:00,
2013-01-01 04:22:00,31.0,24.0,29.82,NNW,335,2.0,6.0,75,0.00,,,0.00,,2013-01-01 09:22:00,
2013-01-01 04:32:00,31.0,24.0,29.83,NNW,333,3.0,6.0,76,0.00,,,0.00,,2013-01-01 09:32:00,
2013-01-01 04:42:00,31.0,24.0,29.83,NNW,333,3.0,6.0,76,0.00,,,0.00,,2013-01-01 09:42:00,
2013-01-01 04:52:00,31.0,24.0,29.83,NNW,342,2.0,9.0,76,0.00,,,0.00,,2013-01-01 09:52:00,
2013-01-01 05:02:00,31.0,25.0,29.83,NW,317,2.0,6.0,77,0.00,,,0.00,,2013-01-01 10:02:00,
2013-01-01 05:12:00,31.0,25.0,29.83,NW,317,2.0,6.0,77,0.00,,,0.00,,2013-01-01 10:12:00,
2013-01-01 05:22:00,31.0,25.0,29.83,NW,304,3.0,5.0,77,0.00,,,0.00,,2013-01-01 10:22:00,
2013-01-01 05:33:00,31.0,25.0,29.83,NW,323,2.0,5.0,77,0.00,,,0.00,,2013-01-01 10:33:00,
2013-01-01 05:42:00,31.0,25.0,29.83,NW,323,2.0,5.0,77,0.00,,,0.00,,2013-01-01 10:42:00,
2013-01-01 05:53:00,31.0,25.0,29.83,NNW,332,2.0,6.0,78,0.00,,,0.00,,2013-01-01 10:53:00,
2013-01-01 06:02:00,31.0,25.0,29.83,NW,325,3.0,5.0,78,0.00,,,0.00,,2013-01-01 11:02:00,
2013-01-01 06:12:00,31.0,25.0,29.83,NW,325,3.0,5.0,78,0.00,,,0.00,,2013-01-01 11:12:00,
2013-01-01 06:23:00,31.0,25.0,29.83,NNW,329,2.0,6.0,78,0.00,,,0.00,,2013-01-01 11:23:00,
2013-01-01 06:33:00,31.0,25.0,29.83,NNW,329,2.0,6.0,78,0.00,,,0.00,,2013-01-01 11:33:00,
2013-01-01 06:43:00,31.0,25.0,29.83,NNW,329,2.0,6.0,78,0.00,,,0.00,,2013-01-01 11:43:00,
2013-01-01 06:53:00,31.0,25.0,29.84,NNW,336,3.0,6.0,79,0.00,,,0.00,,2013-01-01 11:53:00,
2013-01-01 07:03:00,31.0,25.0,29.84,NNW,338,3.0,6.0,79,0.00,,,0.00,,2013-01-01 12:03:00,
2013-01-01 07:12:00,31.0,25.0,29.84,NNW,338,3.0,6.0,79,0.00,,,0.00,,2013-01-01 12:12:00,
2013-01-01 07:22:00,32.0,26.0,29.84,North,355,2.0,6.0,79,0.00,,,0.00,,2013-01-01 12:22:00,
2013-01-01 07:33:00,32.0,26.0,29.84,NW,314,2.0,6.0,79,0.00,,,0.00,,2013-01-01 12:33:00,
2013-01-01 07:43:00,32.0,26.0,29.84,NW,314,2.0,6.0,79,0.00,,,0.00,,2013-01-01 12:43:00,
2013-01-01 07:53:00,32.0,26.0,29.84,NNW,328,2.0,4.0,79,0.00,,,0.00,,2013-01-01 12:53:00,
2013-01-01 08:03:00,32.0,26.0,29.85,NNW,346,1.0,5.0,79,0.00,,,0.00,,2013-01-01 13:03:00,
2013-01-01 08:12:00,32.0,26.0,29.85,NNW,346,1.0,5.0,79,0.00,,,0.00,,2013-01-01 13:12:00,
2013-01-01 08:22:00,32.0,26.0,29.85,NNW,340,2.0,5.0,79,0.00,,,0.00,,2013-01-01 13:22:00,
2013-01-01 08:33:00,32.0,26.0,29.85,NW,324,2.0,4.0,79,0.00,,,0.00,,2013-01-01 13:33:00,
2013-01-01 08:43:00,32.0,26.0,29.85,NW,324,2.0,4.0,79,0.00,,,0.00,,2013-01-01 13:43:00,
2013-01-01 08:53:00,32.0,26.0,29.86,NNW,328,3.0,6.0,77,0.00,,,0.00,,2013-01-01 13:53:00,
2013-01-01 09:02:00,32.0,26.0,29.86,NNW,339,1.0,5.0,78,0.00,,,0.00,,2013-01-01 14:02:00,
2013-01-01 09:12:00,32.0,26.0,29.86,NNW,339,1.0,5.0,78,0.00,,,0.00,,2013-01-01 14:12:00,
2013-01-01 09:22:00,32.0,26.0,29.86,NNE,19,1.0,4.0,79,0.00,,,0.00,,2013-01-01 14:22:00,
2013-01-01 09:32:00,32.0,26.0,29.87,North,355,2.0,6.0,77,0.00,,,0.00,,2013-01-01 14:32:00,
2013-01-01 09:42:00,32.0,26.0,29.87,North,355,2.0,6.0,77,0.00,,,0.00,,2013-01-01 14:42:00,
2013-01-01 09:53:00,32.0,25.0,29.87,North,355,2.0,7.0,75,0.00,,,0.00,,2013-01-01 14:53:00,
2013-01-01 10:03:00,32.0,24.0,29.88,North,11,3.0,8.0,73,0.00,,,0.00,,2013-01-01 15:03:00,
2013-01-01 10:12:00,32.0,24.0,29.88,North,11,3.0,8.0,73,0.00,,,0.00,,2013-01-01 15:12:00,
2013-01-01 10:22:00,32.0,23.0,29.88,North,5,4.0,8.0,68,0.00,,,0.00,,2013-01-01 15:22:00,
2013-01-01 10:33:00,32.0,23.0,29.88,ESE,119,1.0,7.0,68,0.00,,,0.00,,2013-01-01 15:33:00,
2013-01-01 10:42:00,32.0,23.0,29.88,ESE,119,1.0,7.0,68,0.00,,,0.00,,2013-01-01 15:42:00,
2013-01-01 10:53:00,32.0,22.0,29.87,North,355,1.0,6.0,66,0.00,,,0.00,,2013-01-01 15:53:00,
2013-01-01 11:02:00,32.0,22.0,29.87,North,5,2.0,5.0,66,0.00,,,0.00,,2013-01-01 16:02:00,
2013-01-01 11:12:00,32.0,22.0,29.87,North,5,2.0,5.0,66,0.00,,,0.00,,2013-01-01 16:12:00,
2013-01-01 11:22:00,32.0,21.0,29.86,NNW,344,4.0,6.0,63,0.00,,,0.00,,2013-01-01 16:22:00,
2013-01-01 11:33:00,32.0,20.0,29.87,NNW,338,4.0,10.0,62,0.00,,,0.00,,2013-01-01 16:33:00,
2013-01-01 11:43:00,32.0,20.0,29.87,NNW,338,4.0,10.0,62,0.00,,,0.00,,2013-01-01 16:43:00,
2013-01-01 11:53:00,32.0,21.0,29.85,North,5,2.0,9.0,63,0.00,,,0.00,,2013-01-01 16:53:00,
2013-01-01 12:02:00,32.0,20.0,29.85,North,360,2.0,7.0,62,0.00,,,0.00,,2013-01-01 17:02:00,
2013-01-01 12:12:00,32.0,20.0,29.85,North,360,2.0,7.0,62,0.00,,,0.00,,2013-01-01 17:12:00,
2013-01-01 12:22:00,32.0,20.0,29.84,North,5,3.0,6.0,62,0.00,,,0.00,,2013-01-01 17:22:00,
2013-01-01 12:33:00,31.0,20.0,29.83,NNE,28,4.0,9.0,62,0.00,,,0.00,,2013-01-01 17:33:00,
2013-01-01 12:43:00,31.0,20.0,29.83,NNE,28,4.0,9.0,62,0.00,,,0.00,,2013-01-01 17:43:00,
2013-01-01 12:53:00,31.0,19.0,29.83,North,355,5.0,11.0,61,0.00,,,0.00,,2013-01-01 17:53:00,
2013-01-01 13:03:00,31.0,20.0,29.84,NNE,26,3.0,8.0,62,0.00,,,0.00,,2013-01-01 18:03:00,
2013-01-01 13:13:00,31.0,20.0,29.84,NNE,26,3.0,8.0,62,0.00,,,0.00,,2013-01-01 18:13:00,
2013-01-01 13:23:00,32.0,20.0,29.83,NNE,22,4.0,10.0,61,0.00,,,0.00,,2013-01-01 18:23:00,
2013-01-01 13:33:00,32.0,20.0,29.83,North,9,2.0,8.0,60,0.00,,,0.00,,2013-01-01 18:33:00,
2013-01-01 13:43:00,32.0,20.0,29.83,North,9,2.0,8.0,60,0.00,,,0.00,,2013-01-01 18:43:00,
2013-01-01 13:53:00,32.0,20.0,29.83,North,9,2.0,8.0,60,0.00,,,0.00,,2013-01-01 18:53:00,
2013-01-01 14:02:00,31.0,19.0,29.83,NNW,348,2.0,8.0,61,0.00,,,0.00,,2013-01-01 19:02:00,
2013-01-01 14:12:00,31.0,19.0,29.83,NNW,348,2.0,8.0,61,0.00,,,0.00,,2013-01-01 19:12:00,
2013-01-01 14:22:00,32.0,20.0,29.83,NE,34,2.0,5.0,61,0.00,,,0.00,,2013-01-01 19:22:00,
2013-01-01 14:33:00,31.0,18.0,29.82,North,5,4.0,8.0,59,0.00,,,0.00,,2013-01-01 19:33:00,
2013-01-01 14:42:00,31.0,18.0,29.82,North,5,4.0,8.0,59,0.00,,,0.00,,2013-01-01 19:42:00,
2013-01-01 14:53:00,30.0,18.0,29.83,NNW,340,2.0,8.0,61,0.00,,,0.00,,2013-01-01 19:53:00,
2013-01-01 15:02:00,30.0,18.0,29.83,North,5,3.0,7.0,61,0.00,,,0.00,,2013-01-01 20:02:00,
2013-01-01 15:13:00,30.0,18.0,29.83,North,5,3.0,7.0,61,0.00,,,0.00,,2013-01-01 20:13:00,
2013-01-01 15:23:00,29.0,16.0,29.83,NNW,340,5.0,11.0,59,0.00,,,0.00,,2013-01-01 20:23:00,
2013-01-01 15:32:00,29.0,16.0,29.85,NNW,338,3.0,7.0,59,0.00,,,0.00,,2013-01-01 20:32:00,
2013-01-01 15:42:00,29.0,16.0,29.85,NNW,338,3.0,7.0,59,0.00,,,0.00,,2013-01-01 20:42:00,
2013-01-01 15:53:00,28.0,14.0,29.84,NNW,338,4.0,11.0,56,0.00,,,0.00,,2013-01-01 20:53:00,
2013-01-01 16:03:00,28.0,14.0,29.84,NW,320,4.0,12.0,54,0.00,,,0.00,,2013-01-01 21:03:00,
2013-01-01 16:13:00,28.0,14.0,29.84,NW,320,4.0,12.0,54,0.00,,,0.00,,2013-01-01 21:13:00,
2013-01-01 16:22:00,27.0,13.0,29.85,ENE,64,5.0,9.0,54,0.00,,,0.00,,2013-01-01 21:22:00,
2013-01-01 16:33:00,27.0,13.0,29.86,NNW,342,4.0,8.0,54,0.00,,,0.00,,2013-01-01 21:33:00,
2013-01-01 16:42:00,27.0,13.0,29.86,NNW,342,4.0,8.0,54,0.00,,,0.00,,2013-01-01 21:42:00,
2013-01-01 16:53:00,26.0,12.0,29.87,NW,318,3.0,8.0,56,0.00,,,0.00,,2013-01-01 21:53:00,
2013-01-01 17:03:00,26.0,13.0,29.87,NNE,22,5.0,11.0,58,0.00,,,0.00,,2013-01-01 22:03:00,
2013-01-01 17:12:00,26.0,13.0,29.87,NNE,22,5.0,11.0,58,0.00,,,0.00,,2013-01-01 22:12:00,
2013-01-01 17:22:00,25.0,12.0,29.89,NNW,344,3.0,8.0,58,0.00,,,0.00,,2013-01-01 22:22:00,
2013-01-01 17:33:00,25.0,13.0,29.89,NNW,330,4.0,8.0,59,0.00,,,0.00,,2013-01-01 22:33:00,
2013-01-01 17:42:00,25.0,13.0,29.89,NNW,330,4.0,8.0,59,0.00,,,0.00,,2013-01-01 22:42:00,
2013-01-01 17:53:00,25.0,13.0,29.88,NNE,21,3.0,9.0,60,0.00,,,0.00,,2013-01-01 22:53:00,
2013-01-01 18:03:00,25.0,13.0,29.89,NNE,22,3.0,8.0,60,0.00,,,0.00,,2013-01-01 23:03:00,
2013-01-01 18:12:00,25.0,13.0,29.89,NNE,22,3.0,8.0,60,0.00,,,0.00,,2013-01-01 23:12:00,
2013-01-01 18:22:00,25.0,14.0,29.91,ENE,61,2.0,6.0,62,0.00,,,0.00,,2013-01-01 23:22:00,
2013-01-01 18:32:00,24.0,13.0,29.91,NE,37,0.0,3.0,63,0.00,,,0.00,,2013-01-01 23:32:00,
2013-01-01 18:42:00,24.0,13.0,29.91,NE,37,0.0,3.0,63,0.00,,,0.00,,2013-01-01 23:42:00,
2013-01-01 18:53:00,24.0,14.0,29.92,NNE,13,0.0,2.0,65,0.00,,,0.00,,2013-01-01 23:53:00,
2013-01-01 19:03:00,24.0,14.0,29.93,NE,36,0.0,4.0,65,0.00,,,0.00,,2013-01-02 00:03:00,
2013-01-01 19:12:00,24.0,14.0,29.93,NE,36,0.0,4.0,65,0.00,,,0.00,,2013-01-02 00:12:00,
2013-01-01 19:22:00,23.0,13.0,29.93,NNE,23,1.0,4.0,66,0.00,,,0.00,,2013-01-02 00:22:00,
2013-01-01 19:32:00,23.0,13.0,29.92,NNE,22,1.0,4.0,65,0.00,,,0.00,,2013-01-02 00:32:00,
2013-01-01 19:42:00,23.0,13.0,29.92,NNE,22,1.0,4.0,65,0.00,,,0.00,,2013-01-02 00:42:00,
2013-01-01 19:53:00,23.0,13.0,29.93,NNW,344,2.0,6.0,64,0.00,,,0.00,,2013-01-02 00:53:00,
2013-01-01 20:02:00,23.0,13.0,29.94,NW,326,2.0,7.0,64,0.00,,,0.00,,2013-01-02 01:02:00,
2013-01-01 20:12:00,23.0,13.0,29.94,NW,326,2.0,7.0,64,0.00,,,0.00,,2013-01-02 01:12:00,
2013-01-01 20:22:00,22.0,12.0,29.93,North,10,2.0,4.0,64,0.00,,,0.00,,2013-01-02 01:22:00,
2013-01-01 20:32:00,22.0,12.0,29.93,North,350,0.0,4.0,64,0.00,,,0.00,,2013-01-02 01:32:00,
2013-01-01 20:42:00,22.0,12.0,29.93,North,350,0.0,4.0,64,0.00,,,0.00,,2013-01-02 01:42:00,
2013-01-01 20:52:00,21.0,10.0,29.94,North,5,2.0,6.0,63,0.00,,,0.00,,2013-01-02 01:52:00,
2013-01-01 21:02:00,21.0,10.0,29.94,NNE,22,3.0,6.0,62,0.00,,,0.00,,2013-01-02 02:02:00,
2013-01-01 21:12:00,21.0,10.0,29.94,NNE,22,3.0,6.0,62,0.00,,,0.00,,2013-01-02 02:12:00,
2013-01-01 21:22:00,20.0,9.0,29.94,NNE,25,2.0,7.0,62,0.00,,,0.00,,2013-01-02 02:22:00,
2013-01-01 21:32:00,20.0,9.0,29.95,North,350,2.0,4.0,62,0.00,,,0.00,,2013-01-02 02:32:00,
2013-01-01 21:42:00,20.0,9.0,29.95,North,350,2.0,4.0,62,0.00,,,0.00,,2013-01-02 02:42:00,
2013-01-01 21:53:00,19.0,9.0,29.95,NNW,348,1.0,4.0,63,0.00,,,0.00,,2013-01-02 02:53:00,
2013-01-01 22:02:00,19.0,8.0,29.96,North,350,2.0,7.0,62,0.00,,,0.00,,2013-01-02 03:02:00,
2013-01-01 22:12:00,19.0,8.0,29.96,North,350,2.0,7.0,62,0.00,,,0.00,,2013-01-02 03:12:00,
2013-01-01 22:22:00,19.0,9.0,29.96,North,5,1.0,4.0,63,0.00,,,0.00,,2013-01-02 03:22:00,
2013-01-01 22:32:00,18.0,8.0,29.96,NW,317,0.0,5.0,64,0.00,,,0.00,,2013-01-02 03:32:00,
2013-01-01 22:42:00,18.0,8.0,29.96,NW,317,0.0,5.0,64,0.00,,,0.00,,2013-01-02 03:42:00,
2013-01-01 22:53:00,18.0,8.0,29.98,NNW,327,1.0,7.0,64,0.00,,,0.00,,2013-01-02 03:53:00,
2013-01-01 23:03:00,18.0,9.0,29.98,North,349,0.0,6.0,66,0.00,,,0.00,,2013-01-02 04:03:00,
2013-01-01 23:12:00,18.0,9.0,29.98,North,349,0.0,6.0,66,0.00,,,0.00,,2013-01-02 04:12:00,
2013-01-01 23:22:00,18.0,9.0,29.98,North,349,0.0,6.0,66,0.00,,,0.00,,2013-01-02 04:22:00,
2013-01-01 23:32:00,17.0,8.0,29.98,North,5,1.0,4.0,66,0.00,,,0.00,,2013-01-02 04:32:00,
2013-01-01 23:42:00,17.0,8.0,29.98,North,5,1.0,4.0,66,0.00,,,0.00,,2013-01-02 04:42:00,
2013-01-01 23:52:00,17.0,8.0,29.98,North,5,1.0,4.0,66,0.00,,,0.00,,2013-01-02 04:52:00,